Columbus, OH

4:29 AM EST on December 14, 2017 (GMT -0500)
Port Columbus International

Weather History for KCMH - September, 2013

Change the Weather History Date:

Friday, September 20, 2013

  Actual Average Record
Temperature  
Mean Temperature 77 °F 65 °F  
Max Temperature 87 °F 75 °F 97 °F (1895)
Min Temperature 67 °F 55 °F 37 °F (1956)
Degree Days  
Heating Degree Days 0 3  
Month to date heating degree days 22 26  
Since 1 July heating degree days 26 26  
Cooling Degree Days 12 3  
Month to date cooling degree days 125 100  
Year to date cooling degree days 1126 989  
Growing Degree Days 26 (Base 50)    
Moisture  
Dew Point 65 °F    
Average Humidity 71    
Maximum Humidity 93    
Minimum Humidity 48    
Precipitation  
Precipitation T in 0.09 in 0.92 in (2000)
Month to date precipitation 0.99 1.93  
Year to date precipitation 27.63 29.62  
Snow  
Snow 0.00 in 0.00 in - ()
Month to date snowfall 0.0 0.0  
Since 1 July snowfall 0.0 0.0  
Since 1 September snowfall 0.0 0.0  
Snow Depth 0.00 in    
Sea Level Pressure  
Sea Level Pressure 29.92 in    
Wind  
Wind Speed 7 mph (SSW)    
Max Wind Speed 20 mph    
Max Gust Speed 22 mph    
Visibility 6 miles    
Events      
T = Trace of Precipitation, MM = Missing Value Source: NWS Daily Summary

Daily Weather History Graph

Daily Weather History Graph

Search for Another Location

Airport or City:

Trip Planner

Search our weather history database for the weather conditions in past years. The results will help you decide how hot, cold, wet, or windy it might be!

Date:

Astronomy

Sep. 20, 2013 Rise Set
Actual Time 7:17 AM EDT 7:31 PM EDT
Civil Twilight 6:50 AM EDT 7:58 PM EDT
Nautical Twilight 6:18 AM EDT 8:30 PM EDT
Astronomical Twilight 5:46 AM EDT 9:02 PM EDT
Moon 8:04 PM EDT (9/20) 8:30 AM EDT (9/20)
Length of Visible Light 13h 08m
Length of Day
12h 14m
Full, 98% of the Moon is Illuminated
Sep 20
Full
Sep 26
Last Quarter
Oct 4
New
Oct 11
First Quarter
Oct 18
Full

Hourly Weather History & Observations

Time (EDT) Temp. Heat Index Dew Point Humidity Pressure Visibility Wind Dir Wind Speed Gust Speed Precip Events Conditions
12:51 AM 68.0 °F - 64.9 °F 90% 30.01 in 3.0 mi Calm Calm - N/A   Mostly Cloudy
1:38 AM 66.2 °F - 64.4 °F 94% 30.01 in 2.0 mi Calm Calm - N/A   Overcast
1:51 AM 66.9 °F - 64.9 °F 93% 30.00 in 2.0 mi Calm Calm - N/A   Overcast
2:51 AM 66.9 °F - 64.0 °F 90% 30.00 in 2.0 mi South 4.6 mph - N/A   Partly Cloudy
3:00 AM 66.2 °F - 64.4 °F 94% 30.00 in 3.0 mi South 3.5 mph - N/A   Partly Cloudy
3:26 AM 66.2 °F - 64.4 °F 94% 30.00 in 3.0 mi Calm Calm - N/A   Mostly Cloudy
3:41 AM 66.2 °F - 64.4 °F 94% 30.00 in 3.0 mi Calm Calm - N/A   Mostly Cloudy
3:51 AM 66.9 °F - 64.0 °F 90% 29.98 in 3.0 mi Calm Calm - N/A   Mostly Cloudy
4:02 AM 66.2 °F - 64.4 °F 94% 29.99 in 3.0 mi SSE 3.5 mph - N/A   Scattered Clouds
4:51 AM 66.9 °F - 64.9 °F 93% 29.96 in 3.0 mi ESE 4.6 mph - N/A   Scattered Clouds
5:43 AM 66.2 °F - 64.4 °F 94% 29.97 in 3.0 mi Calm Calm - N/A   Partly Cloudy
5:51 AM 68.0 °F - 64.9 °F 90% 29.95 in 3.0 mi SSE 3.5 mph - N/A   Partly Cloudy
6:51 AM 68.0 °F - 64.9 °F 90% 29.95 in 4.0 mi SSE 3.5 mph - N/A   Mostly Cloudy
7:23 AM 66.2 °F - 64.4 °F 94% 29.98 in 2.5 mi Calm Calm - N/A   Mostly Cloudy
7:51 AM 68.0 °F - 64.9 °F 90% 29.97 in 2.5 mi SSE 3.5 mph - N/A   Overcast
8:10 AM 68.0 °F - 66.2 °F 94% 29.98 in 3.0 mi Calm Calm - N/A   Mostly Cloudy
8:51 AM 70.0 °F - 66.0 °F 87% 29.96 in 4.0 mi South 4.6 mph - N/A   Mostly Cloudy
9:19 AM 71.6 °F - 66.2 °F 83% 29.97 in 5.0 mi South 8.1 mph - N/A   Haze
9:51 AM 73.0 °F - 66.9 °F 81% 29.95 in 6.0 mi SSW 6.9 mph - N/A   Haze
10:51 AM 75.9 °F - 66.9 °F 74% 29.94 in 8.0 mi SSW 8.1 mph - N/A   Mostly Cloudy
11:51 AM 80.1 °F 82.7 °F 68.0 °F 67% 29.93 in 9.0 mi SSW 10.4 mph - N/A   Mostly Cloudy
12:51 PM 84.0 °F 86.3 °F 66.0 °F 55% 29.90 in 10.0 mi SW 12.7 mph 16.1 mph N/A   Mostly Cloudy
1:51 PM 86.0 °F 87.6 °F 64.9 °F 49% 29.87 in 10.0 mi SW 11.5 mph 17.3 mph N/A   Mostly Cloudy
2:51 PM 84.9 °F 86.1 °F 64.0 °F 49% 29.85 in 10.0 mi WSW 8.1 mph - N/A   Mostly Cloudy
3:51 PM 86.0 °F 87.3 °F 64.0 °F 48% 29.82 in 10.0 mi South 11.5 mph - N/A   Mostly Cloudy
4:51 PM 84.9 °F 86.6 °F 64.9 °F 51% 29.80 in 10.0 mi SSE 13.8 mph 19.6 mph N/A   Mostly Cloudy
5:51 PM 84.0 °F 85.4 °F 64.0 °F 51% 29.80 in 10.0 mi South 13.8 mph - N/A   Overcast
6:51 PM 82.9 °F 84.4 °F 64.0 °F 53% 29.81 in 10.0 mi South 10.4 mph - N/A   Overcast
7:51 PM 81.0 °F 82.7 °F 64.9 °F 58% 29.80 in 10.0 mi South 10.4 mph - N/A   Overcast
8:51 PM 73.9 °F - 66.0 °F 76% 29.83 in 10.0 mi West 9.2 mph - N/A   Overcast
9:51 PM 73.0 °F - 66.0 °F 79% 29.83 in 10.0 mi West 8.1 mph - N/A   Overcast
10:51 PM 73.0 °F - 66.0 °F 79% 29.81 in 10.0 mi SW 5.8 mph - 0.00 in   Overcast
11:51 PM 72.0 °F - 66.0 °F 81% 29.79 in 10.0 mi SSW 3.5 mph - N/A   Overcast